[[{"header":{"parameterUnit":"m.s-1","parameterCategory":1,"la1":30.2991,"la2":30.254,"lo1":-89.0895,"lo2":-89.0444,"dy":0.0017,"dx":0.0017,"nx":28,"ny":28,"refTime":"2024-05-08T21:00:00:Z","depth":0,"parameterNumber":2,"parameterNumberName":"U-component_of_WINDS"},"data":[0,0,0,0,0,0,0,0,0,0,0,0,0,0,0,0,0,0,0,0,0,0,0,0,0,0,0,0,0,0,0,0,0,0,0,0,0,0,0,0,0,0,0,0,0,0,0,0,0,0,0,0,0,0,0,0,0,0,3.9645,3.9646,0,3.9767,3.9768,3.977,3.9738,3.9736,3.9733,3.9731,3.9857,3.9863,3.9868,0,0,0,0,0,0,0,0,0,0,0,0,0,3.9384,3.9389,3.9645,3.9646,3.9648,3.9767,3.9768,3.977,3.9739,3.9736,3.9733,3.973,3.9855,3.9862,3.9869,0,0,0,0,0,0,0,0,0,0,0,0,0,3.9501,3.9391,3.9644,3.9646,3.9648,3.9766,3.9768,3.9771,3.9739,3.9736,3.9732,3.9729,3.9853,3.9861,3.987,3.9994,0,0,3.9895,3.9899,0,0,0,0,0,0,0,0,3.9495,3.9511,3.9645,3.9646,3.9648,3.9734,3.9723,3.9845,3.974,3.9705,3.9731,3.9727,3.9819,3.983,3.9861,4.0,4.0005,3.9896,3.9901,3.9905,3.9907,0,0,0,0,0,0,0,3.9487,3.9505,3.9693,3.9647,3.9649,3.9641,3.9654,3.9746,3.9781,3.9707,3.9705,3.972,3.9819,3.9853,3.9864,4.0007,3.9896,3.9903,3.9908,3.9912,4.0253,4.0257,0,0,0,0,0,0,3.9477,3.9499,3.9689,3.9697,3.9561,3.9649,3.9663,3.971,3.978,3.9787,3.9723,3.9718,3.984,3.9854,3.9868,4.0017,3.9905,3.9912,3.9917,4.0249,4.0254,4.0258,0,0,0,0,0,0,3.9472,3.9494,3.9684,3.9597,3.9621,3.9657,3.971,3.9714,3.9748,3.9792,3.9798,3.9751,3.9838,3.9856,3.9962,4.0021,3.9916,3.9924,4.0244,4.025,4.0256,4.0316,0,0,0,0,0,0,3.9464,3.9492,3.954,3.9599,3.9626,3.9777,3.9714,3.9719,3.9762,3.9757,3.9819,3.9826,3.9837,3.995,3.9971,4.003,3.993,4.0239,4.0247,4.0254,4.0309,4.0323,4.0336,0,0,0,0,0,3.9455,3.9552,3.9542,3.9566,3.9686,3.978,3.9796,3.9805,3.9767,3.9815,3.9843,3.9824,4.0011,3.9961,3.9984,4.0047,4.0235,4.0245,4.0253,4.0303,4.032,4.0335,0,0,0,0,0,0,3.95,3.956,3.955,3.9669,3.972,3.9775,3.9835,3.9824,3.9887,3.9879,3.9889,3.9903,4.0012,4.0041,3.9983,4.0171,4.0118,4.0132,4.0147,4.0165,4.0178,4.0167,3.9937,0,0,0,0,0,3.9523,3.9595,3.9644,3.9744,3.977,3.9799,3.984,3.9843,3.9896,3.9917,3.9953,4.0006,4.0076,4.0122,4.019,4.0314,4.0326,4.0368,4.0382,4.0392,4.0404,4.047,4.0489,4.0288,4.0288,4.0288,0,0,3.9573,3.9615,3.9659,3.9754,3.9794,3.9867,3.9817,3.9897,3.9951,3.993,4.0032,4.006,4.0119,4.0234,4.0287,4.0262,4.0463,4.0404,4.0412,4.0418,4.0481,4.05,4.0517,4.0294,4.0293,4.0292,0,0,3.97,3.974,3.9827,3.9868,3.9929,3.9947,3.9968,4.0025,4.0043,4.0146,4.013,4.0196,4.0318,4.036,4.0397,4.0541,4.0525,4.0563,4.0632,4.0697,4.0712,4.0726,4.0776,4.0794,4.0575,4.0575,4.0575,0,3.9754,3.9864,3.9874,3.9955,3.9997,3.9981,4.0069,4.0108,4.0188,4.0217,4.0188,4.034,4.0379,4.0503,4.0538,4.0569,4.0593,4.0555,4.0709,4.0724,4.0737,4.0784,4.0803,4.0579,4.0579,4.0578,4.0578,0,3.9927,4.0004,4.0067,4.0143,4.0193,4.0277,4.0299,4.0348,4.0348,4.0369,4.0474,4.052,4.0595,4.0626,4.0626,4.075,4.0732,4.0707,4.0653,4.076,4.0804,4.0823,4.0585,4.0583,4.0582,4.0581,0,0,4.0084,4.0165,4.0188,4.0222,4.0288,4.0348,4.0432,4.0506,4.0547,4.0603,4.0672,4.0776,4.0752,4.0795,4.08,4.0857,4.0966,4.0824,4.0825,4.0847,4.1104,4.1121,4.1142,4.0957,4.0961,4.0964,4.1098,0,4.0216,4.0363,4.0374,4.0506,4.0577,4.0563,4.0636,4.0684,4.0707,4.077,4.0795,4.0867,4.0831,4.0857,4.0913,4.0941,4.1017,4.0932,4.1021,4.1024,4.1004,4.1165,4.1184,4.1309,4.1116,4.1119,4.1121,0,4.0389,4.0449,4.0588,4.0644,4.0674,4.0739,4.0807,4.0868,4.0923,4.0935,4.0983,4.098,4.1066,4.1011,4.1129,4.1071,4.1108,4.1128,4.1133,4.114,4.1077,4.1174,4.1349,4.1366,4.1149,4.1147,4.1145,0,4.0487,4.0603,4.0701,4.0731,4.0799,4.0845,4.0875,4.0926,4.097,4.103,4.1058,4.1128,4.1166,4.122,4.1236,4.1195,4.1353,4.13,4.1365,4.1364,4.1396,4.1394,4.1577,4.1425,4.1425,4.1424,4.1424,0,4.0631,4.0716,4.0746,4.0806,4.0901,4.0914,4.1007,4.1035,4.1081,4.1146,4.114,4.1201,4.1219,4.1284,4.1298,4.1392,4.141,4.1422,4.1424,4.1421,4.1419,4.1444,4.1435,4.1429,4.1428,4.1427,4.1426,0,4.0756,4.0779,4.0885,4.094,4.0956,4.1024,4.1071,4.1129,4.1151,4.1233,4.1253,4.1288,4.1363,4.1385,4.1477,4.1486,4.1596,4.1592,4.1577,4.1576,4.1639,4.1632,4.1842,4.187,4.1702,4.1704,4.1705,0,4.0845,4.091,4.0973,4.1015,4.1048,4.1117,4.1161,4.1177,4.1223,4.129,4.134,4.1415,4.1475,4.1596,4.1629,4.1699,4.1694,4.1764,4.1705,4.1699,4.1693,4.1687,4.1693,4.1774,4.1775,4.1777,4.1778,0,4.1,4.1009,4.1072,4.1141,4.1194,4.1248,4.1301,4.1337,4.1359,4.1412,4.1489,4.1536,4.1629,4.1702,4.1773,4.1804,4.1795,4.1797,4.1815,4.1811,4.1799,4.1804,4.1605,4.1791,4.179,4.1789,4.1788,4.1788,4.1108,4.1165,4.1218,4.1289,4.133,4.1379,4.1436,4.1465,4.1529,4.1605,4.1611,4.1694,4.1747,4.1841,4.1876,4.1941,4.192,4.1947,4.1954,4.1959,4.1963,4.1791,4.1954,4.1954,4.1953,4.1953,4.1953,0,4.1261,4.1294,4.136,4.1433,4.1489,4.1477,4.1534,4.1581,4.1654,4.1705,4.1764,4.1852,4.1924,4.1963,4.2034,4.2078,4.2076,4.2096,4.2092,4.2099,4.1979,4.1954,4.2097,4.2097,4.2097,4.2097,4.2097,4.2097,4.1347,4.1441,4.1456,4.1571,4.1604,4.1685,4.1719,4.1764,4.1804,4.1902,4.1961,4.1987,4.2032,4.2107,4.2171,4.2181,4.2207,4.2229,4.2236,4.2122,4.2108,4.2093,4.2071,4.2235,4.2235,4.2351,4.2352,4.2352]},{"header":{"parameterUnit":"m.s-1","parameterCategory":1,"la1":30.2991,"la2":30.254,"lo1":-89.0895,"lo2":-89.0444,"dy":0.0017,"dx":0.0017,"nx":28,"ny":28,"refTime":"2024-05-08T21:00:00:Z","depth":0,"parameterNumber":3,"parameterNumberName":"V-component_of_WINDS"},"data":[0,0,0,0,0,0,0,0,0,0,0,0,0,0,0,0,0,0,0,0,0,0,0,0,0,0,0,0,0,0,0,0,0,0,0,0,0,0,0,0,0,0,0,0,0,0,0,0,0,0,0,0,0,0,0,0,0,0,1.0433,1.0435,0,1.0559,1.056,1.0561,1.0598,1.0598,1.0597,1.0596,1.0726,1.073,1.0734,0,0,0,0,0,0,0,0,0,0,0,0,0,1.0226,1.0229,1.0433,1.0435,1.0436,1.0558,1.056,1.0562,1.0598,1.0598,1.0597,1.0596,1.0724,1.0729,1.0734,0,0,0,0,0,0,0,0,0,0,0,0,0,1.033,1.023,1.0433,1.0469,1.0474,1.0558,1.056,1.0562,1.0599,1.0598,1.0597,1.0596,1.0723,1.0729,1.0735,1.0792,0,0,1.0753,1.0756,0,0,0,0,0,0,0,0,1.0324,1.0337,1.0462,1.0467,1.0472,1.0562,1.0534,1.0639,1.0599,1.0551,1.0596,1.0595,1.0672,1.0682,1.0708,1.0798,1.0804,1.0754,1.0757,1.076,1.0762,0,0,0,0,0,0,0,1.0317,1.0332,1.0483,1.0464,1.047,1.0479,1.0493,1.0554,1.0616,1.0555,1.0558,1.0573,1.0674,1.0702,1.0711,1.0805,1.0754,1.0759,1.0763,1.0765,1.0948,1.0949,0,0,0,0,0,0,1.0303,1.0326,1.0479,1.0487,1.0394,1.0484,1.0499,1.0534,1.0615,1.0626,1.0573,1.0574,1.0692,1.0704,1.0716,1.0788,1.076,1.0766,1.0769,1.0947,1.0948,1.0949,0,0,0,0,0,0,1.0299,1.0316,1.0474,1.0407,1.0428,1.0488,1.0527,1.0537,1.0565,1.0629,1.064,1.059,1.0692,1.0707,1.0772,1.0793,1.0768,1.0774,1.0945,1.0947,1.0949,1.0933,0,0,0,0,0,0,1.0292,1.0315,1.0337,1.0407,1.0431,1.0528,1.0529,1.054,1.0575,1.0577,1.0647,1.0658,1.0692,1.0763,1.0778,1.0801,1.0779,1.0944,1.0946,1.0948,1.0932,1.0934,1.0936,0,0,0,0,0,1.0285,1.0328,1.0338,1.0356,1.0461,1.053,1.0543,1.0581,1.0576,1.06,1.064,1.0656,1.0788,1.077,1.0787,1.0812,1.0943,1.0945,1.0948,1.0931,1.0933,1.0936,0,0,0,0,0,0,1.026,1.0338,1.035,1.0417,1.0466,1.0536,1.0566,1.0583,1.0635,1.0634,1.0679,1.0695,1.0757,1.0791,1.0769,1.0871,1.0866,1.0872,1.0847,1.085,1.0851,1.0842,1.0784,0,0,0,0,0,1.0262,1.0311,1.0377,1.043,1.0454,1.0505,1.0537,1.0562,1.0614,1.0636,1.0681,1.0732,1.0785,1.0819,1.0871,1.0936,1.0952,1.0962,1.0964,1.0965,1.097,1.1006,1.1011,1.0958,1.0958,1.0958,0,0,1.0267,1.0316,1.0344,1.0426,1.0467,1.0517,1.0523,1.0576,1.0613,1.0644,1.0708,1.0743,1.0803,1.0868,1.0899,1.0898,1.0988,1.0968,1.0969,1.0974,1.101,1.1015,1.1019,1.096,1.096,1.096,0,0,1.0302,1.0344,1.0392,1.0433,1.0494,1.0528,1.054,1.0606,1.063,1.0695,1.0719,1.0764,1.0854,1.0896,1.0928,1.0977,1.0993,1.0992,1.1003,1.1038,1.1042,1.1046,1.1063,1.1069,1.0997,1.0997,1.0997,0,1.0301,1.0377,1.0415,1.0467,1.0501,1.053,1.058,1.0617,1.0693,1.0716,1.0714,1.0827,1.0869,1.0944,1.0955,1.0981,1.0995,1.0985,1.1038,1.1042,1.1047,1.1063,1.107,1.0997,1.0997,1.0997,1.0997,0,1.0372,1.0425,1.0456,1.0528,1.0566,1.0616,1.0661,1.0696,1.0716,1.075,1.0815,1.0867,1.0929,1.0949,1.097,1.1026,1.1024,1.1029,1.1025,1.1051,1.1067,1.1074,1.0996,1.0996,1.0996,1.0997,0,0,1.0397,1.0487,1.0498,1.0531,1.06,1.0641,1.0691,1.0752,1.0781,1.0831,1.0875,1.0949,1.0954,1.0991,1.1017,1.1048,1.1082,1.1049,1.1051,1.1054,1.1147,1.1143,1.115,1.1093,1.1094,1.1095,1.1142,0,1.0441,1.0533,1.0568,1.0643,1.0691,1.0718,1.0762,1.0809,1.0842,1.0887,1.0923,1.0976,1.0978,1.1001,1.1032,1.1071,1.1102,1.1068,1.1134,1.1136,1.1119,1.1159,1.1155,1.1197,1.1149,1.115,1.1151,0,1.0505,1.0555,1.0635,1.0697,1.0718,1.0757,1.0815,1.0859,1.0912,1.0933,1.0974,1.0997,1.1051,1.1042,1.1117,1.1093,1.1122,1.1145,1.1147,1.1156,1.1145,1.1168,1.1211,1.1217,1.1161,1.116,1.116,0,1.0515,1.0602,1.0661,1.0688,1.0762,1.0788,1.082,1.0873,1.0907,1.0957,1.0979,1.1035,1.1066,1.1109,1.1146,1.1137,1.1217,1.1212,1.1237,1.1236,1.1253,1.1252,1.1302,1.127,1.127,1.127,1.127,0,1.0561,1.0608,1.0666,1.0703,1.0756,1.0796,1.0848,1.0882,1.0928,1.0971,1.0997,1.1037,1.1084,1.113,1.116,1.1216,1.123,1.1249,1.1256,1.1247,1.1245,1.1267,1.1265,1.1272,1.1272,1.1271,1.1271,0,1.0581,1.0622,1.0688,1.0752,1.0769,1.0806,1.086,1.0896,1.0929,1.0983,1.0998,1.105,1.1105,1.1146,1.1218,1.1238,1.1298,1.1306,1.128,1.1284,1.1306,1.1304,1.1373,1.1384,1.1345,1.1345,1.1345,0,1.0608,1.0646,1.0713,1.0743,1.0775,1.0824,1.0858,1.0898,1.0932,1.0995,1.1023,1.108,1.1127,1.1214,1.1258,1.1312,1.1322,1.1342,1.133,1.1319,1.1322,1.132,1.1323,1.1344,1.1344,1.1344,1.1344,0,1.0652,1.067,1.0718,1.0773,1.0813,1.0858,1.0904,1.0928,1.0975,1.1013,1.1069,1.1106,1.1178,1.1234,1.1292,1.1325,1.1343,1.1347,1.1356,1.1347,1.1331,1.134,1.1285,1.1346,1.1346,1.1346,1.1346,1.1346,1.0677,1.0711,1.0763,1.0816,1.0854,1.0896,1.0932,1.0969,1.1017,1.1078,1.1099,1.1157,1.1208,1.1288,1.1321,1.1367,1.1367,1.138,1.1383,1.1386,1.1385,1.1323,1.1378,1.1378,1.1378,1.1378,1.1378,0,1.0722,1.0756,1.0804,1.0867,1.0908,1.092,1.0971,1.1004,1.1055,1.1101,1.1147,1.1211,1.1265,1.1312,1.1368,1.1395,1.1405,1.1409,1.1407,1.1415,1.1382,1.1369,1.14,1.14,1.14,1.14,1.14,1.14,1.075,1.0808,1.0831,1.0908,1.0942,1.0999,1.1027,1.1065,1.1102,1.1173,1.1217,1.1247,1.1294,1.1353,1.1403,1.1415,1.1435,1.1437,1.1451,1.142,1.1417,1.1414,1.1403,1.1441,1.1441,1.1481,1.1481,1.1481]}]]